| time (UTC) | temp C | wind direction | speed KPH | gust KPH | rain 1hr cm | rain 24hr cm | rain mn cm | humidity % | barometer mb |
| 20260505041012 | 15 | 128 | 1.6 | 0.0 | 0.00 | 0.00 | 0.00 | 77 | 1004.0 |
| 20260505040012 | 15 | 128 | 0.0 | 0.0 | 0.00 | 0.00 | 0.00 | 77 | 1004.0 |
| 20260505035011 | 15 | 128 | 0.0 | 0.0 | 0.00 | 0.00 | 0.00 | 76 | 1003.9 |
| 20260505034511 | 15 | 128 | 0.0 | 0.0 | 0.00 | 0.00 | 0.00 | 76 | 1003.9 |
| 20260505034011 | 15 | 128 | 0.0 | 0.0 | 0.00 | 0.00 | 0.00 | 76 | 1003.9 |
| 20260505033511 | 15 | 128 | 0.0 | 0.0 | 0.00 | 0.00 | 0.00 | 75 | 1003.9 |
| 20260505033010 | 15 | 129 | 0.0 | 0.0 | 0.00 | 0.00 | 0.00 | 75 | 1003.9 |
| 20260505032510 | 15 | 128 | 0.0 | 0.0 | 0.00 | 0.00 | 0.00 | 74 | 1003.9 |
| 20260505031512 | 16 | 128 | 0.0 | 0.0 | 0.00 | 0.00 | 0.00 | 73 | 1003.9 |
| 20260505030511 | 16 | 128 | 0.0 | 0.0 | 0.00 | 0.00 | 0.00 | 72 | 1004.0 |
| 20260505025510 | 16 | 128 | 0.0 | 0.0 | 0.00 | 0.00 | 0.00 | 71 | 1003.9 |
| 20260505025010 | 16 | 128 | 0.0 | 0.0 | 0.00 | 0.00 | 0.00 | 70 | 1003.9 |
| 20260505024510 | 16 | 128 | 0.0 | 0.0 | 0.00 | 0.00 | 0.00 | 70 | 1003.9 |
| 20260505024010 | 16 | 128 | 0.0 | 0.0 | 0.00 | 0.00 | 0.00 | 69 | 1003.9 |
| 20260505022510 | 17 | 128 | 0.0 | 0.0 | 0.00 | 0.00 | 0.00 | 68 | 1003.7 |
| 20260505022011 | 17 | 128 | 0.0 | 0.0 | 0.00 | 0.00 | 0.00 | 68 | 1003.7 |
| 20260505021012 | 17 | 205 | 0.0 | 0.0 | 0.00 | 0.00 | 0.00 | 67 | 1003.6 |
| 20260505020510 | 17 | 205 | 0.0 | 0.0 | 0.00 | 0.00 | 0.00 | 66 | 1003.6 |
| 20260505015010 | 17 | 205 | 0.0 | 0.0 | 0.00 | 0.00 | 0.00 | 64 | 1003.6 |
| 20260505014511 | 18 | 205 | 0.0 | 0.0 | 0.00 | 0.00 | 0.00 | 63 | 1003.6 |
| 20260505014011 | 18 | 205 | 0.0 | 0.0 | 0.00 | 0.00 | 0.00 | 62 | 1003.6 |
| 20260505013511 | 18 | 205 | 0.0 | 0.0 | 0.00 | 0.00 | 0.00 | 62 | 1003.6 |
| 20260505013012 | 18 | 205 | 0.0 | 0.0 | 0.00 | 0.00 | 0.00 | 61 | 1003.6 |
| 20260505012511 | 18 | 205 | 0.0 | 0.0 | 0.00 | 0.00 | 0.00 | 61 | 1003.5 |
| 20260505012011 | 18 | 205 | 0.0 | 0.0 | 0.00 | 0.00 | 0.00 | 60 | 1003.5 |
| 20260505011511 | 19 | 205 | 0.0 | 0.0 | 0.00 | 0.00 | 0.00 | 60 | 1003.5 |
| 20260505010513 | 20 | 205 | 0.0 | 0.0 | 0.00 | 0.00 | 0.00 | 58 | 1003.4 |
| 20260505010011 | 20 | 205 | 0.0 | 0.0 | 0.00 | 0.00 | 0.00 | 57 | 1003.4 |
| 20260505005511 | 20 | 205 | 0.0 | 0.0 | 0.00 | 0.00 | 0.00 | 56 | 1003.3 |
| 20260505004511 | 21 | 205 | 0.0 | 0.0 | 0.00 | 0.00 | 0.00 | 54 | 1003.3 |
| 20260505004013 | 21 | 205 | 0.0 | 0.0 | 0.00 | 0.00 | 0.00 | 52 | 1003.3 |
| 20260505003511 | 21 | 205 | 0.0 | 0.0 | 0.00 | 0.00 | 0.00 | 51 | 1003.3 |
| 20260505002511 | 22 | 205 | 0.0 | 0.0 | 0.00 | 0.00 | 0.00 | 47 | 1003.2 |
| 20260505002011 | 22 | 205 | 0.0 | 0.0 | 0.00 | 0.00 | 0.00 | 47 | 1003.2 |
| 20260505001511 | 22 | 205 | 0.0 | 0.0 | 0.00 | 0.00 | 0.00 | 46 | 1003.2 |
| 20260505001011 | 23 | 205 | 0.0 | 0.0 | 0.00 | 0.00 | 0.00 | 46 | 1003.6 |
| 20260505000511 | 23 | 205 | 0.0 | 0.0 | 0.00 | 0.00 | 0.00 | 46 | 1003.6 |
| 20260505000013 | 23 | 205 | 0.0 | 0.0 | 0.00 | 0.00 | 0.00 | 44 | 1003.6 |
| 20260504235511 | 23 | 200 | 0.0 | 0.0 | 0.00 | 0.00 | 0.00 | 44 | 1003.5 |
| 20260504235012 | 23 | 192 | 3.2 | 0.0 | 0.00 | 0.00 | 0.00 | 43 | 1003.5 |
| 20260504234011 | 23 | 197 | 0.0 | 0.0 | 0.00 | 0.00 | 0.00 | 44 | 1003.4 |
| 20260504233011 | 23 | 197 | 0.0 | 0.0 | 0.00 | 0.00 | 0.00 | 43 | 1003.4 |
| 20260504232511 | 23 | 197 | 0.0 | 0.0 | 0.00 | 0.00 | 0.00 | 43 | 1003.3 |
| 20260504231511 | 23 | 207 | 0.0 | 0.0 | 0.00 | 0.00 | 0.00 | 42 | 1003.3 |
| 20260504231011 | 23 | 252 | 0.0 | 0.0 | 0.00 | 0.00 | 0.00 | 43 | 1003.5 |
| 20260504230511 | 23 | 252 | 0.0 | 0.0 | 0.00 | 0.00 | 0.00 | 43 | 1003.5 |
| 20260504230011 | 23 | 195 | 0.0 | 0.0 | 0.00 | 0.00 | 0.00 | 43 | 1003.5 |
| 20260504225511 | 23 | 197 | 4.8 | 0.0 | 0.00 | 0.00 | 0.00 | 44 | 1003.6 |
| 20260504225011 | 24 | 201 | 0.0 | 0.0 | 0.00 | 0.00 | 0.00 | 44 | 1003.6 |
| 20260504224511 | 24 | 202 | 0.0 | 0.0 | 0.00 | 0.00 | 0.00 | 44 | 1003.6 |
| 20260504224011 | 24 | 201 | 0.0 | 0.0 | 0.00 | 0.00 | 0.00 | 44 | 1003.7 |
| 20260504223011 | 24 | 316 | 0.0 | 0.0 | 0.00 | 0.00 | 0.00 | 44 | 1003.7 |
| 20260504222011 | 24 | 191 | 4.8 | 0.0 | 0.00 | 0.00 | 0.00 | 44 | 1003.6 |
| 20260504221511 | 23 | 186 | 1.6 | 0.0 | 0.00 | 0.00 | 0.00 | 45 | 1003.6 |
| 20260504221011 | 24 | 203 | 0.0 | 0.0 | 0.00 | 0.00 | 0.00 | 45 | 1003.6 |
| 20260504220511 | 24 | 178 | 0.0 | 0.0 | 0.00 | 0.00 | 0.00 | 45 | 1003.6 |
| 20260504220011 | 24 | 224 | 6.4 | 0.0 | 0.00 | 0.00 | 0.00 | 46 | 1003.6 |
| 20260504215511 | 24 | 184 | 0.0 | 0.0 | 0.00 | 0.00 | 0.00 | 46 | 1003.8 |
| 20260504214511 | 23 | 210 | 4.8 | 0.0 | 0.00 | 0.00 | 0.00 | 46 | 1003.8 |
| 20260504214011 | 23 | 204 | 0.0 | 0.0 | 0.00 | 0.00 | 0.00 | 45 | 1004.1 |
| 20260504213512 | 23 | 189 | 0.0 | 0.0 | 0.00 | 0.00 | 0.00 | 47 | 1004.1 |
| 20260504213011 | 23 | 188 | 6.4 | 0.0 | 0.00 | 0.00 | 0.00 | 48 | 1004.1 |
| 20260504212511 | 23 | 199 | 0.0 | 0.0 | 0.00 | 0.00 | 0.00 | 46 | 1004.1 |
| 20260504211511 | 23 | 264 | 8.0 | 0.0 | 0.00 | 0.00 | 0.00 | 46 | 1004.1 |
| 20260504211012 | 23 | 193 | 6.4 | 0.0 | 0.00 | 0.00 | 0.00 | 46 | 1004.3 |
| 20260504210510 | 23 | 205 | 6.4 | 0.0 | 0.00 | 0.00 | 0.00 | 46 | 1004.3 |
| 20260504210011 | 23 | 195 | 0.0 | 0.0 | 0.00 | 0.00 | 0.00 | 46 | 1004.3 |
| 20260504205011 | 22 | 156 | 0.0 | 0.0 | 0.00 | 0.00 | 0.00 | 47 | 1004.5 |
| 20260504204510 | 22 | 200 | 6.4 | 0.0 | 0.00 | 0.00 | 0.00 | 46 | 1004.5 |
| 20260504204010 | 22 | 248 | 0.0 | 0.0 | 0.00 | 0.00 | 0.00 | 46 | 1004.6 |
| 20260504203510 | 22 | 184 | 9.7 | 0.0 | 0.00 | 0.00 | 0.00 | 46 | 1004.6 |
| 20260504203011 | 22 | 177 | 12.9 | 0.0 | 0.00 | 0.00 | 0.00 | 46 | 1004.6 |
| 20260504202511 | 22 | 195 | 0.0 | 0.0 | 0.00 | 0.00 | 0.00 | 46 | 1004.6 |
| 20260504202010 | 22 | 181 | 6.4 | 0.0 | 0.00 | 0.00 | 0.00 | 48 | 1004.6 |
| 20260504201512 | 22 | 226 | 0.0 | 0.0 | 0.00 | 0.00 | 0.00 | 49 | 1004.6 |
| 20260504201011 | 21 | 192 | 1.6 | 0.0 | 0.00 | 0.00 | 0.00 | 52 | 1004.6 |
| 20260504200511 | 21 | 202 | 11.3 | 0.0 | 0.00 | 0.00 | 0.00 | 51 | 1004.6 |
| 20260504200011 | 21 | 204 | 20.9 | 0.0 | 0.00 | 0.00 | 0.00 | 50 | 1004.6 |
| 20260504195011 | 20 | 188 | 1.6 | 0.0 | 0.00 | 0.00 | 0.00 | 54 | 1004.7 |
| 20260504194510 | 20 | 180 | 4.8 | 0.0 | 0.00 | 0.00 | 0.00 | 57 | 1004.7 |
| 20260504193511 | 20 | 205 | 11.3 | 0.0 | 0.00 | 0.00 | 0.00 | 56 | 1005.2 |
| 20260504193011 | 20 | 185 | 3.2 | 0.0 | 0.00 | 0.00 | 0.00 | 57 | 1005.2 |
| 20260504192010 | 19 | 198 | 4.8 | 0.0 | 0.00 | 0.00 | 0.00 | 60 | 1005.1 |
| 20260504191510 | 19 | 203 | 6.4 | 0.0 | 0.00 | 0.00 | 0.00 | 60 | 1005.1 |
| 20260504190511 | 21 | 213 | 3.2 | 0.0 | 0.00 | 0.00 | 0.00 | 53 | 1006.7 |
| 20260504190012 | 21 | 206 | 4.8 | 0.0 | 0.00 | 0.00 | 0.00 | 48 | 1006.7 |
| 20260504185510 | 22 | 238 | 6.4 | 0.0 | 0.00 | 0.00 | 0.00 | 47 | 1005.5 |
| 20260504185010 | 22 | 237 | 3.2 | 0.0 | 0.00 | 0.00 | 0.00 | 45 | 1005.5 |
| 20260504184510 | 22 | 207 | 0.0 | 0.0 | 0.00 | 0.00 | 0.00 | 45 | 1005.5 |
| 20260504184010 | 22 | 243 | 0.0 | 0.0 | 0.00 | 0.00 | 0.00 | 46 | 1005.5 |
| 20260504183510 | 22 | 212 | 0.0 | 0.0 | 0.00 | 0.00 | 0.00 | 46 | 1005.5 |
| 20260504183011 | 22 | 200 | 0.0 | 0.0 | 0.00 | 0.00 | 0.00 | 46 | 1005.5 |
| 20260504182011 | 23 | 204 | 8.0 | 0.0 | 0.00 | 0.00 | 0.00 | 44 | 1005.1 |
| 20260504181512 | 22 | 226 | 0.0 | 0.0 | 0.00 | 0.00 | 0.00 | 46 | 1005.1 |
| 20260504181012 | 22 | 210 | 1.6 | 0.0 | 0.00 | 0.00 | 0.00 | 46 | 1005.5 |
| 20260504180510 | 22 | 187 | 3.2 | 0.0 | 0.00 | 0.00 | 0.00 | 46 | 1005.5 |
| 20260504180010 | 22 | 192 | 12.9 | 0.0 | 0.00 | 0.00 | 0.00 | 47 | 1005.5 |
| 20260504175512 | 21 | 215 | 0.0 | 0.0 | 0.00 | 0.00 | 0.00 | 48 | 1005.6 |
| 20260504175010 | 21 | 253 | 4.8 | 0.0 | 0.00 | 0.00 | 0.00 | ||
| 20260504174010 | 21 | 214 | 3.2 | 0.0 | 0.00 | 0.00 | 0.00 | 49 | 1005.9 |
| 20260504173510 | 21 | 222 | 8.0 | 0.0 | 0.00 | 0.00 | 0.00 | 50 | 1005.9 |
| 20260504173010 | 21 | 203 | 8.0 | 0.0 | 0.00 | 0.00 | 0.00 | 51 | 1005.9 |
| 20260504172513 | 21 | 189 | 14.5 | 0.0 | 0.00 | 0.00 | 0.00 | 51 | 1006.3 |
| 20260504172010 | 20 | 212 | 6.4 | 0.0 | 0.00 | 0.00 | 0.00 | 52 | 1006.3 |
| 20260504171511 | 20 | 197 | 8.0 | 0.0 | 0.00 | 0.00 | 0.00 | 51 | 1006.3 |
| 20260504171011 | 20 | 202 | 8.0 | 0.0 | 0.00 | 0.00 | 0.00 | 51 | 1006.6 |
| 20260504170511 | 20 | 205 | 3.2 | 0.0 | 0.00 | 0.00 | 0.00 | 53 | 1006.6 |
| 20260504150513 | 15 | 163 | 0.0 | 0.0 | 0.00 | 0.00 | 0.00 | 66 | 1008.5 |
| 20260504141011 | 15 | 206 | 1.6 | 0.0 | 0.00 | 0.00 | 0.00 | 59 | 1009.0 |
| 20260504140511 | 15 | 195 | 0.0 | 0.0 | 0.00 | 0.00 | 0.00 | 59 | 1009.0 |
| 20260504110510 | 6 | 148 | 0.0 | 0.0 | 0.00 | 0.00 | 0.00 | 92 | 1007.6 |
| 20260504081510 | 8 | 148 | 0.0 | 0.0 | 0.00 | 0.00 | 0.00 | 84 | 1009.2 |
| 20260504081011 | 8 | 148 | 0.0 | 0.0 | 0.00 | 0.00 | 0.00 | 84 | 1009.2 |
| 20260504050511 | 9 | 148 | 0.0 | 0.0 | 0.00 | 0.00 | 0.00 | 75 | 1010.7 |
| 20260504050012 | 10 | 148 | 0.0 | 0.0 | 0.00 | 0.00 | 0.00 | 75 | 1010.7 |
| 20260504045511 | 10 | 148 | 0.0 | 0.0 | 0.00 | 0.00 | 0.00 | 75 | 1010.7 |
| 20260504045011 | 10 | 148 | 0.0 | 0.0 | 0.00 | 0.00 | 0.00 | 73 | 1010.7 |
| 20260504044011 | 10 | 148 | 0.0 | 0.0 | 0.00 | 0.00 | 0.00 | 72 | 1010.7 |
| 20260504043512 | 10 | 148 | 0.0 | 0.0 | 0.00 | 0.00 | 0.00 | 73 | 1010.7 |
| 20260504043011 | 10 | 148 | 0.0 | 0.0 | 0.00 | 0.00 | 0.00 | 72 | 1010.7 |
| 20260504042511 | 10 | 148 | 0.0 | 0.0 | 0.00 | 0.00 | 0.00 | 70 | 1010.8 |
| 20260504042011 | 10 | 148 | 0.0 | 0.0 | 0.00 | 0.00 | 0.00 | 71 | 1010.8 |